This is the latest recevied weather packets stored in our database for station/object OE9FWV-10. If no packets are shown the sender has not sent any weather packets the latest 10 day(s).
| Time | Temp. | Humidity | Pressure | Rain* | Wind** | Luminosity | Snow |
|---|---|---|---|---|---|---|---|
| 1777143413 | 26.67° C | 24% | 1020.1 hPa | - | - | - | - |
| 1777142513 | 27.22° C | 23% | 1019.8 hPa | - | - | - | - |
| 1777141613 | 27.78° C | 22% | 1019.7 hPa | - | - | - | - |
| 1777140713 | 28.33° C | 22% | 1019.6 hPa | - | - | - | - |
| 1777139812 | 28.89° C | 22% | 1019.3 hPa | - | - | - | - |
| 1777138912 | 29.44° C | 21% | 1019.2 hPa | - | - | - | - |
| 1777138012 | 29.44° C | 21% | 1019.1 hPa | - | - | - | - |
| 1777137112 | 29.44° C | 21% | 1019.1 hPa | - | - | - | - |
| 1777136212 | 30° C | 21% | 1019 hPa | - | - | - | - |
| 1777135312 | 30° C | 21% | 1018.9 hPa | - | - | - | - |
| 1777134412 | 30.56° C | 20% | 1019 hPa | - | - | - | - |
| 1777133512 | 30.56° C | 20% | 1018.9 hPa | - | - | - | - |
| 1777132612 | 30.56° C | 20% | 1018.9 hPa | - | - | - | - |
| 1777131712 | 31.11° C | 19% | 1019 hPa | - | - | - | - |
| 1777130812 | 31.11° C | 19% | 1019 hPa | - | - | - | - |
| 1777129912 | 32.22° C | 18% | 1019.1 hPa | - | - | - | - |
| 1777129012 | 35.56° C | 15% | 1018.9 hPa | - | - | - | - |
| 1777128111 | 36.67° C | 15% | 1018.9 hPa | - | - | - | - |
| 1777127211 | 37.22° C | 14% | 1018.9 hPa | - | - | - | - |
| 1777126311 | 37.22° C | 14% | 1018.9 hPa | - | - | - | - |
| 1777125411 | 37.78° C | 14% | 1019 hPa | - | - | - | - |
| 1777124511 | 38.33° C | 14% | 1019 hPa | - | - | - | - |
| 1777123611 | 38.33° C | 13% | 1019.1 hPa | - | - | - | - |
| 1777122711 | 38.33° C | 13% | 1019.2 hPa | - | - | - | - |
| 1777121811 | 38.33° C | 14% | 1019.3 hPa | - | - | - | - |
* Rain since midnight (hover to see other rain measurements)
** Current wind speed in m/s (hover to see current wind gust speed)